GFSMW_850_spd_003.txt.gz
Wind_Speed
27 28 28 28 27 27 26 25 25 25 23 22 18 18 16 15 14 13 14 13 11 12 13 8 12 9 9 6 13 10 8 7 3 6 3 5 3 2 3 4 4 5 3
27 28 29 29 29 29 28 27 26 27 25 21 20 16 16 14 14 13 15 11 12 10 12 7 9 12 6 10 7 6 3 4 4 4 5 4 4 6 5 2 4 5 4
30 30 31 31 30 30 31 30 29 27 26 24 17 18 15 16 10 13 11 13 14 13 13 12 8 6 7 6 6 4 3 2 4 5 2 5 5 1 5 4 1 4 3
32 32 32 32 33 31 30 30 30 29 26 27 22 21 16 15 14 12 12 11 8 8 8 5 6 8 6 9 5 3 4 3 2 2 0 4 3 5 6 5 3 1 3
34 34 35 34 32 31 30 30 32 29 28 26 25 22 19 14 13 12 11 14 9 10 8 7 9 6 6 9 7 4 3 3 3 2 3 2 2 1 1 5 1 6 2
33 34 34 33 33 32 31 31 33 33 29 27 25 27 22 20 15 16 12 10 10 6 10 8 10 7 3 5 3 5 4 5 7 4 5 2 2 1 3 5 6 7 7
33 36 37 38 37 37 35 33 34 34 31 27 25 24 25 19 18 14 17 10 10 9 11 11 12 7 6 7 5 6 6 4 3 4 4 6 6 5 4 7 9 10 9
34 37 40 40 40 39 38 36 35 34 34 31 29 27 25 22 21 20 15 13 12 11 12 12 12 11 10 8 8 7 5 6 5 6 6 6 6 6 6 7 8 11 13
33 39 39 40 40 40 42 41 37 36 35 30 31 30 27 26 23 21 20 15 16 15 15 16 15 13 13 12 10 8 10 10 9 9 10 9 7 7 8 8 10 10 13
30 37 39 40 40 40 40 41 39 36 35 32 30 28 28 27 26 23 22 21 20 21 18 17 15 15 15 16 13 12 10 11 9 9 10 12 9 8 10 10 10 9 12
27 34 38 40 41 39 39 40 40 38 36 35 31 30 29 28 27 29 29 28 28 25 26 21 19 18 16 15 12 11 13 10 9 10 13 13 13 9 9 9 9 10 12
25 29 37 38 39 42 40 40 38 37 36 34 35 34 33 32 32 32 33 35 33 32 28 25 23 21 15 16 11 13 12 13 12 14 14 13 11 14 10 9 12 13 16
17 24 29 38 42 43 43 42 41 38 34 34 33 34 35 37 37 37 38 37 38 36 34 30 30 23 16 18 14 14 14 14 14 13 14 13 14 15 15 15 15 14 15
9 18 27 34 42 44 45 44 42 38 34 32 33 36 40 39 39 42 45 42 41 40 39 37 35 29 20 19 15 14 15 16 15 14 15 15 17 18 18 17 18 19 18
15 18 26 32 38 42 44 45 41 39 35 35 34 37 38 37 40 43 47 45 43 44 43 43 38 32 23 18 16 17 18 17 17 16 15 15 16 18 17 18 21 24 22
19 18 23 29 34 39 40 43 44 38 36 36 37 36 37 39 43 46 47 45 46 46 44 43 40 40 28 23 20 23 19 20 20 18 17 19 22 23 24 25 25 27 27
33 22 24 31 35 38 37 38 41 40 36 38 36 34 39 41 44 43 42 41 43 48 43 51 47 31 25 25 22 24 23 21 19 21 22 19 18 22 23 27 29 27 21
40 24 24 28 31 31 30 34 33 40 38 38 35 37 40 41 39 36 33 31 32 45 47 46 35 23 21 25 24 25 26 26 25 21 19 19 20 22 26 29 30 26 24
31 21 24 29 31 33 34 35 33 35 34 32 36 37 40 37 32 31 27 24 26 34 40 40 33 27 25 25 26 24 30 25 23 21 21 22 24 29 31 30 24 24 24
25 20 23 30 31 32 32 35 33 33 35 32 33 34 32 30 27 23 22 20 22 23 24 22 25 25 23 24 25 26 25 25 23 24 27 25 28 29 26 22 24 21 19
20 20 25 29 31 31 31 31 31 30 28 26 26 28 28 27 23 21 19 18 20 19 23 20 21 22 22 22 20 20 21 21 20 19 25 24 29 22 21 21 23 24 24
22 26 27 29 29 30 32 31 29 27 28 28 27 26 26 24 21 19 19 18 17 17 16 19 17 15 17 20 22 19 19 22 25 22 19 21 23 20 22 23 24 24 23
24 26 27 31 28 27 27 25 23 26 27 26 27 27 27 24 21 19 18 18 15 14 14 13 12 12 14 16 20 22 23 24 23 24 25 23 20 21 23 23 20 17 18
27 27 26 26 22 19 17 17 18 20 21 26 24 26 27 24 21 18 18 16 15 14 13 13 13 11 12 13 13 19 18 19 21 24 21 22 22 22 18 17 15 14 8
23 21 19 18 18 16 15 13 15 16 16 19 22 22 23 23 20 16 15 12 16 16 12 9 7 10 10 12 10 8 6 10 13 14 11 14 10 11 13 13 13 12 12
19 20 18 16 15 13 13 12 15 17 19 22 22 23 21 21 19 18 19 18 14 15 15 9 10 13 12 11 11 13 14 16 16 15 12 13 13 14 14 13 13 13 13

GFSMW_850_spd_006.txt.gz
Wind_Speed
29 30 30 29 29 29 31 30 31 29 24 22 21 21 22 17 14 12 9 15 17 16 12 11 10 10 7 8 4 12 4 2 4 7 6 10 1 6 6 5 4 7 5
30 31 32 31 32 32 32 33 32 32 33 28 23 17 18 12 14 16 16 16 10 10 10 8 5 6 5 5 9 11 2 2 5 6 5 8 7 6 7 3 3 4 3
32 35 34 34 34 35 36 35 34 32 33 30 25 22 18 18 14 14 14 14 14 13 9 10 9 10 8 6 7 5 2 4 2 5 1 2 2 8 7 6 4 5 1
33 34 37 36 36 36 37 35 35 33 32 28 25 19 21 15 15 13 14 15 13 13 18 13 9 10 9 8 8 4 4 4 2 1 4 3 1 2 7 11 3 1 2
34 35 39 38 36 35 37 38 36 34 32 29 30 22 20 17 16 18 16 21 12 8 8 10 10 14 6 9 9 10 8 6 5 4 4 0 1 3 1 11 5 6 3
34 37 37 38 39 37 37 38 37 37 33 31 29 28 23 22 17 19 20 18 14 14 18 16 15 15 7 10 9 6 6 12 10 9 6 5 2 6 1 3 4 4 5
35 38 39 42 43 42 40 39 40 39 35 35 32 31 28 25 25 20 18 17 15 18 15 17 16 15 9 12 9 6 7 6 9 6 8 6 8 7 5 3 8 9 10
36 38 42 43 44 45 41 40 41 40 38 36 35 30 33 29 30 23 26 21 19 18 20 18 18 17 14 13 11 10 11 5 4 9 13 8 5 6 5 7 7 10 10
38 38 40 44 41 43 44 43 41 41 40 36 37 32 30 34 33 30 27 25 24 21 25 26 22 20 19 14 12 11 9 12 11 11 8 7 12 9 9 8 9 11 8
34 35 38 41 42 42 44 42 42 42 41 37 38 34 34 34 36 32 30 30 24 27 25 27 25 22 18 19 17 13 17 12 10 10 9 11 10 10 9 10 8 10 9
33 32 37 39 40 39 42 44 43 41 41 39 38 38 38 38 36 36 35 36 33 31 33 29 26 23 22 22 20 18 13 12 13 10 17 15 14 15 13 9 9 9 10
26 27 30 38 40 42 41 43 44 43 42 40 40 39 40 39 40 41 40 39 36 37 36 34 31 27 26 25 22 19 23 20 15 13 13 14 16 12 11 10 8 12 15
25 31 29 37 41 44 43 44 46 45 41 42 43 43 41 42 42 44 43 42 41 43 40 39 35 31 31 28 24 20 19 19 18 16 14 13 12 16 15 14 14 15 15
22 25 25 35 44 46 48 46 45 45 44 44 45 44 44 45 44 44 44 43 43 43 42 42 39 35 34 31 27 23 20 17 20 21 19 16 17 18 20 19 20 19 20
20 18 21 30 43 45 50 50 46 47 45 46 45 46 46 46 45 44 46 45 43 44 41 41 40 37 34 33 29 25 22 18 20 19 17 18 19 20 21 20 18 20 22
17 24 26 25 29 43 49 52 51 49 47 47 48 45 45 45 45 44 43 42 40 38 39 39 39 38 36 36 26 24 24 21 21 22 19 20 18 22 18 22 20 21 25
24 18 21 27 30 34 49 54 54 49 49 48 49 46 45 47 46 43 42 42 41 41 38 40 41 41 34 26 23 24 25 24 23 23 22 21 21 19 21 23 19 22 28
32 30 31 25 26 29 37 45 46 48 48 47 47 47 46 47 44 42 42 42 41 39 38 34 35 35 37 34 30 27 25 27 24 24 22 20 20 21 24 23 23 28 31
28 34 30 29 30 31 35 40 45 50 46 48 45 47 43 43 43 42 41 39 37 33 29 31 32 29 28 24 23 25 26 28 29 27 24 23 24 25 23 24 27 29 24
33 20 24 33 31 34 37 41 41 47 50 48 48 41 41 42 42 39 35 32 29 24 21 25 27 18 25 25 26 21 21 24 27 24 22 23 23 25 25 25 27 25 20
31 27 17 23 29 36 36 40 41 42 45 38 36 35 36 38 36 32 26 24 19 19 19 21 22 18 21 23 21 19 19 23 18 17 21 23 22 23 24 22 21 20 22
3 7 17 25 30 34 34 35 33 29 31 32 31 32 34 32 25 19 17 18 18 20 19 17 18 18 19 20 20 17 17 16 19 18 16 16 16 20 21 21 20 22 26
5 10 13 17 21 25 30 31 28 28 30 29 30 32 29 27 26 21 21 18 17 17 15 13 15 14 10 13 14 15 19 18 19 19 26 23 22 23 20 20 22 22 20
13 17 20 20 22 24 26 27 27 30 31 32 31 29 26 22 19 17 16 15 15 15 12 13 13 11 13 15 12 14 15 20 21 22 20 21 22 20 20 17 14 16 17
24 23 24 22 24 25 27 27 28 29 30 28 26 24 23 23 22 22 19 16 17 15 15 13 9 9 12 8 7 6 6 6 11 14 12 11 12 12 13 15 15 14 11
23 21 18 17 19 21 21 22 22 22 22 23 21 24 26 25 27 22 19 18 16 16 15 12 14 11 11 8 6 6 7 6 8 9 11 12 12 15 13 12 12 11 10

GFSMW_850_spd_009.txt.gz
Wind_Speed
38 38 38 37 33 34 33 35 33 26 24 23 19 18 22 17 16 20 18 18 15 15 12 12 11 10 6 5 7 7 7 5 3 3 1 7 3 6 7 4 7 4 4
43 39 42 39 40 38 39 37 35 33 27 25 24 21 21 19 18 14 16 16 16 12 7 8 8 9 8 8 9 6 4 4 5 3 3 6 8 8 6 2 6 3 2
46 46 46 43 43 43 42 41 38 34 35 29 26 22 18 21 20 20 20 21 18 15 10 11 10 8 10 11 8 7 7 8 7 3 3 5 4 12 7 6 4 4 6
48 51 50 48 46 45 42 40 38 36 35 37 32 29 24 25 24 18 21 19 15 15 13 15 12 12 14 13 9 7 4 11 7 5 1 3 4 5 9 10 6 2 2
48 52 54 54 50 48 45 43 40 37 35 35 37 34 26 25 19 18 18 17 19 16 13 15 13 15 11 13 11 6 5 15 11 9 9 2 3 5 5 15 12 10 4
49 48 54 53 52 50 48 46 43 40 37 32 33 33 27 23 26 26 25 22 25 20 14 16 15 14 14 13 11 8 10 14 17 13 11 10 5 8 4 8 5 4 8
45 48 50 54 55 53 50 48 46 42 38 34 32 35 31 27 26 26 26 25 27 23 18 17 19 16 15 13 12 10 10 14 13 16 14 16 8 7 6 6 6 7 10
44 50 54 57 57 55 51 48 47 44 40 36 33 34 37 33 31 29 21 29 26 21 20 19 16 15 15 14 12 12 11 12 12 13 16 17 13 11 8 9 8 7 8
34 46 55 56 58 56 53 50 48 45 41 36 35 35 38 40 36 34 26 26 23 20 19 20 18 18 17 17 14 14 13 12 12 11 14 19 14 14 10 9 12 9 8
41 41 52 56 57 58 54 49 47 46 42 38 36 36 39 40 39 37 36 30 28 28 24 24 24 23 21 20 18 17 16 15 13 11 11 16 16 17 11 9 10 9 10
47 45 56 59 58 56 54 52 49 46 45 41 39 36 39 41 38 39 40 38 32 33 32 30 28 27 26 24 21 19 18 19 17 15 14 14 16 19 16 13 10 10 12
57 53 55 50 53 55 54 55 53 50 46 43 41 38 37 40 40 40 41 42 41 38 33 33 32 30 27 26 26 23 22 21 20 19 16 19 18 17 15 18 18 14 11
42 47 48 49 53 54 54 55 54 51 48 45 44 41 39 41 43 42 41 43 43 41 39 37 37 37 34 31 29 26 25 25 22 20 20 17 17 20 18 17 17 17 15
26 45 46 51 54 54 53 55 55 52 49 47 46 44 43 43 44 42 43 44 43 43 43 43 42 40 37 34 32 29 26 26 27 24 23 20 18 17 19 19 17 16 17
25 45 50 54 49 54 55 54 55 54 49 48 48 47 45 44 44 44 42 43 47 46 43 42 43 42 39 35 34 31 29 26 26 25 25 23 21 20 20 20 19 20 19
20 36 38 41 49 53 55 56 55 54 50 48 48 47 46 46 46 46 43 42 41 44 44 42 41 41 38 35 35 32 31 26 23 21 23 24 25 24 21 20 19 20 21
26 32 32 40 48 50 50 56 57 56 55 50 49 48 46 46 47 47 44 43 40 37 38 39 38 35 35 33 32 31 29 25 24 23 24 27 27 24 22 22 21 19 17
15 24 27 29 28 39 52 51 57 59 57 54 51 49 48 46 45 45 44 42 40 38 36 34 34 32 32 30 28 25 25 24 24 24 27 25 25 24 23 20 20 22 23
38 28 23 30 28 34 37 54 56 61 59 58 54 53 49 48 48 47 42 43 39 37 36 32 32 30 30 27 24 26 24 26 27 29 30 28 24 21 20 22 23 24 26
30 33 36 27 30 37 39 45 56 59 62 60 59 56 53 50 51 47 43 41 33 25 27 29 27 25 23 21 19 20 27 28 28 28 31 29 28 24 23 21 21 25 24
17 22 32 32 26 27 40 43 47 56 62 60 53 54 50 50 49 42 39 30 26 27 26 23 20 19 17 16 18 20 20 21 19 21 20 22 22 23 21 20 19 21 19
3 4 17 38 33 25 44 47 47 48 45 43 43 41 45 45 41 34 29 26 28 28 23 18 17 17 16 17 23 20 19 16 18 19 17 16 15 17 16 17 18 17 16
8 10 9 26 32 33 42 44 42 40 39 40 39 39 39 34 32 29 29 28 23 19 17 16 17 17 16 13 14 16 16 17 18 18 18 19 18 18 17 16 14 13 11
16 18 22 23 22 28 34 36 36 35 39 41 37 33 29 28 26 24 22 21 19 17 15 16 16 17 16 14 13 10 13 16 19 18 18 20 17 12 9 9 6 9 13
22 24 28 28 24 24 28 31 32 35 37 36 33 31 29 28 26 23 21 18 17 15 14 12 13 14 14 11 7 9 9 9 11 15 16 12 7 5 6 8 9 10 11
22 35 34 34 31 27 29 29 27 25 27 27 28 28 29 27 26 26 24 20 16 16 17 16 13 11 9 11 10 10 8 7 6 7 8 8 7 6 10 7 8 9 10

GFSMW_850_spd_015.txt.gz
Wind_Speed
47 43 41 40 41 40 38 38 37 35 33 32 32 33 31 28 26 24 19 17 15 13 12 11 12 13 11 9 8 8 7 5 7 8 9 5 4 4 3 2 1 2 3
38 47 44 43 45 44 42 41 40 38 37 34 31 33 31 31 30 26 23 20 17 17 16 14 14 14 13 12 9 8 9 8 9 9 7 9 8 7 6 2 1 2 7
46 48 49 48 47 48 46 44 43 44 41 37 32 32 27 32 34 34 29 25 20 17 17 16 16 14 13 15 13 12 10 11 11 8 6 5 5 11 11 7 4 2 5
40 48 51 51 50 49 46 46 44 45 45 41 37 34 32 32 33 34 33 28 23 21 21 18 18 16 13 13 15 14 11 11 12 10 8 7 6 10 8 13 10 6 3
45 46 54 54 53 48 47 46 47 46 46 46 42 37 34 31 27 29 30 28 24 22 23 23 22 17 16 14 14 13 11 11 14 14 11 8 9 11 12 13 14 11 8
47 53 56 55 55 55 51 48 48 49 49 47 45 42 37 33 31 28 30 28 27 27 26 23 23 19 18 16 14 11 12 9 15 15 14 11 10 12 13 14 14 14 11
47 54 51 52 49 56 58 55 53 52 51 50 47 44 40 36 32 30 27 31 28 28 27 26 24 20 18 16 14 12 13 12 12 15 13 14 11 10 10 9 10 11 10
48 51 59 58 61 61 61 60 58 56 55 53 50 46 42 38 33 32 31 30 32 29 26 25 24 19 17 16 16 14 14 14 14 17 16 14 14 13 11 9 10 10 8
48 53 57 59 61 60 63 64 62 60 58 56 52 49 45 42 36 32 32 32 33 31 28 25 23 22 20 19 18 16 15 15 14 16 16 17 16 15 15 14 13 12 10
45 52 52 58 60 61 62 64 63 61 59 58 54 51 46 43 39 32 33 33 35 34 31 29 27 25 22 21 20 18 17 17 15 15 16 17 16 16 16 14 14 13 12
48 55 56 55 58 55 56 61 62 61 62 61 56 53 48 45 44 35 34 36 34 35 33 31 29 28 25 24 23 21 19 19 18 17 17 15 15 16 20 18 16 14 15
52 50 55 52 47 54 54 58 60 61 59 61 58 53 48 46 46 39 36 39 38 35 32 30 30 30 28 26 25 23 22 22 21 20 19 19 17 15 17 18 21 18 17
33 39 39 35 47 51 55 57 58 59 58 58 58 55 51 48 48 42 40 39 41 40 39 35 32 33 31 28 27 25 25 24 23 22 21 19 19 16 17 17 21 22 22
31 40 42 42 45 49 53 56 57 56 57 57 56 57 53 47 47 44 41 41 42 43 42 40 37 35 34 31 30 30 29 28 26 25 25 23 21 19 18 17 18 21 23
31 40 38 42 47 49 50 53 54 54 55 55 57 56 53 47 46 46 42 42 42 42 43 43 41 39 37 34 32 32 32 33 31 29 27 26 24 22 21 19 19 17 20
28 39 47 49 53 52 53 54 56 54 53 54 56 55 53 51 49 48 45 43 44 42 42 43 44 43 41 38 34 33 34 37 37 33 28 27 26 25 23 22 21 18 20
31 34 40 49 49 50 53 55 54 53 52 52 53 55 54 52 52 51 48 46 46 44 43 44 42 43 40 36 35 34 27 37 44 34 29 23 27 24 23 23 21 22 20
16 24 35 41 47 47 44 50 54 54 53 51 52 53 55 53 53 54 52 49 48 46 43 42 40 38 37 37 35 33 28 38 36 33 27 25 23 24 23 22 22 21 21
26 22 24 41 45 43 42 46 53 52 52 52 52 52 54 54 55 54 54 52 49 47 45 39 36 34 34 33 31 34 27 25 32 22 21 22 23 21 21 21 20 20 19
25 19 16 23 39 44 43 44 52 54 54 52 51 51 53 55 56 53 53 51 50 48 44 35 34 33 31 28 32 28 26 27 20 20 20 20 21 19 21 20 20 21 19
15 17 15 16 19 31 41 43 48 53 51 50 51 52 54 54 55 55 52 51 49 46 39 34 33 32 31 30 31 22 21 18 19 21 19 18 19 21 21 17 17 18 18
7 5 3 5 17 21 28 40 46 45 51 53 50 52 53 54 53 54 53 49 45 41 37 36 34 32 31 31 24 21 17 16 20 18 15 17 20 20 17 16 16 17 16
11 11 9 8 6 1 14 24 36 44 47 49 53 53 50 51 49 51 51 46 42 37 39 38 38 33 31 24 21 19 17 20 19 18 19 19 18 17 15 12 12 14 14
6 8 12 15 13 15 14 9 21 33 39 47 53 55 57 54 48 49 47 46 43 41 41 40 36 30 24 22 25 22 22 24 22 23 20 19 17 16 14 12 12 13 11
7 4 4 10 17 20 20 20 21 20 29 41 48 47 50 51 47 43 43 44 45 41 40 33 25 22 26 30 26 25 28 26 24 23 21 18 16 14 13 13 12 11 12
11 11 11 12 16 22 28 31 30 25 21 30 42 47 48 47 47 49 47 41 38 26 17 15 2 6 15 21 24 22 19 20 21 22 21 19 16 14 14 13 12 12 12

GFSMW_850_spd_021.txt.gz
Wind_Speed
31 30 31 30 32 33 32 30 29 29 30 31 30 30 28 25 25 24 20 18 17 16 15 14 11 7 6 6 6 5 3 5 1 5 6 3 2 3 5 5 4 6 1
30 30 31 31 33 37 36 34 33 30 31 32 31 29 28 26 27 25 21 18 17 16 15 14 12 9 8 8 8 6 3 4 4 6 5 3 2 3 3 4 4 6 9
34 33 34 35 34 37 39 39 36 34 35 32 30 29 27 29 29 29 26 21 20 17 16 14 13 11 10 9 9 8 7 5 6 7 4 3 4 4 7 5 4 4 5
32 32 35 37 37 40 38 38 39 38 37 36 34 33 32 31 31 30 27 25 21 19 17 15 13 13 11 10 11 9 8 7 5 10 11 9 5 4 3 10 8 5 3
35 36 37 42 46 40 40 39 40 41 40 38 37 36 34 31 27 28 29 27 26 24 21 18 16 15 13 11 11 10 8 8 7 9 10 9 9 9 5 5 7 11 8
37 35 37 36 38 39 41 42 42 43 44 43 41 40 37 34 31 28 27 26 27 27 27 25 21 19 17 14 12 11 9 8 8 10 11 10 6 6 6 6 6 7 9
37 38 36 37 42 44 47 46 46 46 45 46 45 44 41 38 35 30 27 27 25 26 28 25 24 23 18 15 14 13 11 8 8 8 11 12 11 9 5 5 5 5 8
36 40 43 45 49 48 48 50 49 48 49 48 47 45 44 43 40 36 32 27 26 24 25 24 24 23 19 17 16 16 14 11 9 10 10 12 11 10 9 7 6 5 5
33 39 46 46 52 52 51 50 51 51 51 50 49 48 47 46 45 41 36 32 27 25 25 24 24 24 22 20 19 17 16 14 12 12 12 13 14 12 11 11 9 7 6
28 33 38 43 51 52 53 52 51 50 49 48 49 49 49 47 46 44 40 36 32 27 29 27 28 26 24 22 21 20 19 18 16 15 15 14 14 14 14 13 12 13 10
29 31 34 37 44 46 47 54 55 54 53 51 48 47 47 46 45 46 42 37 35 32 30 31 29 31 28 26 25 23 21 21 20 19 18 16 16 16 15 14 14 14 13
27 28 27 29 33 43 47 49 52 54 55 56 54 52 48 47 46 46 43 38 37 35 34 32 34 34 32 30 29 27 26 24 24 22 21 20 21 20 18 16 15 15 15
21 27 21 26 32 37 43 47 49 50 49 53 55 55 53 51 51 48 44 43 40 38 36 35 36 36 36 35 33 31 29 28 27 24 22 22 23 23 22 19 17 15 15
20 17 22 28 30 37 41 44 48 46 48 48 50 52 53 52 53 50 46 45 42 41 39 38 36 38 38 39 37 34 33 32 30 28 28 27 23 23 24 23 20 16 16
21 20 20 23 26 34 41 43 44 47 46 48 49 48 47 47 49 51 47 46 46 43 41 40 39 39 40 41 42 40 38 37 33 31 32 30 25 24 24 25 24 21 18
24 21 24 23 21 22 32 39 42 46 47 48 47 46 46 45 47 48 46 45 46 45 43 44 43 41 44 44 43 42 41 40 36 35 34 32 29 27 26 27 27 25 23
38 38 35 30 24 22 24 31 39 43 46 47 46 47 46 46 45 45 45 44 46 45 46 46 45 45 45 47 45 44 41 41 39 38 36 33 31 29 29 26 27 26 25
39 39 35 35 35 30 28 27 33 38 41 43 43 45 46 46 46 46 45 44 46 47 48 47 48 46 46 48 48 47 44 44 41 40 38 34 32 29 31 29 28 28 26
46 40 36 33 29 30 27 29 32 35 38 39 41 43 45 45 45 47 45 45 45 48 49 49 48 50 49 48 48 46 46 47 46 42 43 36 33 29 29 30 27 27 24
31 27 24 18 13 19 20 25 31 34 36 37 40 39 41 42 42 45 46 45 44 46 50 51 49 50 49 49 48 46 46 48 49 46 43 36 35 26 25 31 29 28 23
23 20 22 22 19 19 18 21 25 32 34 34 34 34 36 38 39 41 40 42 43 45 50 53 52 49 48 50 48 44 44 47 48 46 42 38 33 26 28 27 29 26 20
16 18 20 19 17 14 12 11 13 16 18 20 23 28 29 31 33 37 38 40 40 42 47 50 53 54 51 51 51 47 43 45 47 45 37 33 27 30 28 26 27 22 19
16 16 16 17 15 14 12 11 11 11 12 15 17 20 22 26 29 33 37 40 41 44 43 44 43 50 50 50 51 47 44 46 41 36 32 27 29 29 25 25 23 21 19
24 24 22 23 23 19 15 12 10 7 6 7 10 14 19 24 27 30 33 39 39 42 42 43 46 43 40 42 53 46 42 35 31 28 22 23 26 29 25 24 25 23 22
20 19 19 19 18 15 12 9 7 5 5 6 8 11 15 21 26 30 33 39 44 44 46 47 47 42 50 55 46 36 41 37 28 18 16 15 22 24 23 25 25 25 21
16 17 16 16 14 11 9 5 2 2 5 7 9 12 16 20 24 29 35 40 44 44 47 47 47 47 47 45 38 36 37 33 28 20 16 22 30 28 27 28 28 25 22

GFSMW_850_spd_024.txt.gz
Wind_Speed
28 31 31 30 28 27 26 26 26 27 26 25 23 22 21 18 17 17 17 18 15 13 12 10 8 5 5 1 0 2 2 3 4 6 6 4 4 5 6 5 5 5 3
27 30 31 31 31 30 28 27 28 29 30 27 25 22 20 18 17 16 18 20 17 15 15 12 11 7 7 3 2 3 2 1 4 4 4 6 4 3 4 4 4 6 5
31 31 33 34 32 33 32 30 31 29 31 25 24 23 20 19 19 19 19 20 19 17 15 13 11 11 6 6 2 2 4 1 3 7 2 3 1 5 4 4 3 4 3
32 31 33 34 36 36 32 31 31 32 29 32 25 28 25 22 20 19 18 17 20 18 16 14 12 11 7 9 4 3 5 4 3 5 6 5 3 3 5 5 6 4 3
33 34 35 37 36 32 32 31 32 34 31 33 31 29 27 21 17 18 19 22 19 21 16 16 15 12 10 10 8 5 3 5 5 6 6 6 5 6 3 5 5 7 8
35 36 34 31 34 32 31 31 34 39 39 38 38 35 29 27 22 21 20 19 19 18 22 19 18 14 13 12 9 8 6 6 7 7 9 7 5 4 5 5 4 6 7
32 36 35 34 34 36 35 33 34 39 41 41 40 40 38 33 29 23 20 18 18 19 21 23 23 20 18 15 13 12 10 9 9 9 9 9 8 7 6 5 3 4 6
31 34 37 38 37 38 41 39 38 40 42 42 44 42 40 35 31 29 24 21 20 19 19 21 22 22 21 19 18 14 13 13 12 11 11 10 10 9 8 7 6 5 6
31 34 37 38 38 38 41 46 46 44 44 44 44 45 44 43 34 33 30 27 23 19 20 20 21 22 23 22 20 17 18 18 16 15 14 13 11 11 10 10 8 8 6
29 30 32 37 39 40 40 42 44 46 46 46 47 47 46 45 43 42 38 34 29 29 22 23 22 23 24 25 24 21 22 22 21 19 19 17 15 14 12 11 10 9 9
27 28 30 32 35 36 37 39 40 44 45 47 49 49 48 47 45 46 45 42 39 36 32 30 26 26 26 27 27 26 23 26 25 24 23 22 19 14 13 12 12 11 11
22 22 23 24 28 33 36 40 42 41 47 48 47 48 48 49 48 48 46 44 41 39 37 35 31 31 29 30 31 31 27 30 29 29 27 24 20 21 20 16 15 14 14
14 18 20 23 26 28 33 35 37 41 40 42 46 45 47 48 49 48 46 45 42 40 39 39 38 35 35 34 35 34 34 32 31 30 29 25 24 24 20 19 16 14 14
13 13 16 23 24 26 32 38 35 36 37 38 40 45 52 53 51 49 47 45 45 43 43 42 40 40 37 36 37 38 38 36 34 33 31 27 28 24 23 24 21 18 17
4 8 13 17 20 22 27 33 33 35 36 42 40 47 48 49 51 52 51 49 48 47 45 44 43 41 40 36 41 42 42 42 39 36 35 33 32 27 24 22 21 23 22
22 21 16 17 16 19 23 25 32 35 37 41 47 45 44 44 44 47 50 50 50 49 47 47 47 46 45 42 43 44 46 47 45 41 38 35 34 31 28 27 26 25 24
22 20 18 19 19 20 21 23 25 27 36 42 42 44 45 44 44 42 44 46 48 47 49 49 50 51 50 48 47 47 48 51 50 47 41 34 31 33 31 30 29 28 26
24 23 23 21 21 20 19 18 20 24 31 40 40 43 44 44 36 40 42 43 44 46 48 50 50 52 53 51 50 47 47 48 46 43 39 36 31 34 31 31 32 31 29
27 26 26 25 25 23 21 19 21 23 28 36 34 38 40 38 38 41 42 42 41 43 47 48 50 52 55 53 52 49 48 48 44 38 36 35 36 37 33 31 29 28 30
26 25 22 20 20 22 22 21 22 24 30 33 32 33 35 38 40 39 40 41 41 41 37 41 49 53 55 55 53 52 50 47 48 43 46 47 43 38 36 31 29 28 27
20 20 21 21 22 19 17 20 22 26 26 25 26 30 32 34 35 35 37 39 40 36 39 42 45 49 54 56 56 54 54 53 44 44 38 38 43 42 37 30 29 30 26
19 18 16 16 16 20 18 20 23 20 21 22 24 27 29 29 28 34 35 34 34 37 40 40 40 43 52 56 59 58 55 53 49 44 42 43 44 37 34 32 31 28 25
15 11 11 11 9 13 13 15 15 17 18 20 22 22 23 25 28 30 27 29 33 34 35 36 39 44 47 52 57 62 59 54 54 43 40 44 39 28 30 30 29 28 26
3 2 4 6 7 8 10 10 12 13 13 14 15 16 18 20 21 22 24 26 28 31 34 34 39 39 38 42 43 56 55 50 49 43 42 39 30 30 31 29 32 25 29
3 6 6 6 8 9 11 11 13 13 9 10 11 12 13 17 18 21 22 25 28 30 31 35 35 37 39 44 48 54 53 50 51 57 47 38 35 35 33 31 26 24 27
8 9 9 7 9 9 8 8 9 9 9 7 6 8 10 12 15 17 20 26 31 30 35 39 37 35 44 43 48 51 44 43 50 52 47 40 39 38 33 27 22 26 31

GFSMW_850_spd_027.txt.gz
Wind_Speed
29 32 32 30 30 28 28 28 28 28 26 24 22 21 20 17 16 15 15 16 14 12 11 7 3 3 5 4 3 2 4 2 5 7 6 3 5 4 4 4 4 3 2
29 32 33 33 32 31 30 30 31 30 30 26 24 21 19 17 16 15 17 16 15 13 13 10 7 7 7 6 5 7 6 2 6 5 6 8 6 4 4 3 3 5 4
33 34 35 35 34 34 33 33 34 34 32 26 24 23 20 19 18 17 17 17 17 14 14 11 10 10 9 6 6 5 6 5 6 9 4 4 8 10 5 3 3 4 2
32 33 35 36 37 36 34 34 35 35 33 33 25 26 24 22 19 18 17 16 17 16 15 14 12 13 8 10 5 5 7 5 5 6 6 5 1 2 7 6 5 3 2
32 34 37 37 36 35 34 34 36 35 32 33 30 27 26 21 19 18 19 21 18 17 16 15 15 13 12 12 11 10 9 7 7 7 6 5 4 4 1 8 9 4 5
32 34 34 32 33 34 34 33 35 36 36 34 36 32 29 25 20 20 19 18 19 16 21 18 18 16 13 13 10 11 10 11 9 8 9 7 6 6 5 4 7 6 8
29 34 35 35 35 37 37 37 39 40 39 38 35 39 34 31 26 22 21 19 19 20 21 21 24 19 18 16 14 14 12 10 11 13 9 9 8 6 5 4 2 3 4
28 34 37 37 38 40 42 40 40 41 40 40 39 38 41 30 31 28 23 23 20 20 19 24 21 22 19 19 18 16 13 13 12 13 13 10 8 7 6 4 4 4 6
28 33 37 39 39 40 44 45 44 44 44 44 44 43 41 42 34 32 31 25 23 20 22 22 21 23 24 22 21 18 20 17 16 13 14 15 9 8 8 7 6 6 7
29 32 35 39 40 40 44 46 46 47 43 44 44 45 45 44 43 37 36 31 28 26 21 26 24 23 25 26 25 21 21 21 18 16 17 16 11 12 10 9 8 8 7
29 31 34 37 38 38 38 42 45 44 44 44 45 44 46 47 45 46 43 39 34 33 32 26 28 27 26 27 28 26 22 25 24 21 21 22 17 14 13 11 11 11 9
29 30 31 30 34 38 38 40 41 43 48 46 47 48 46 45 47 47 48 46 42 39 36 34 35 30 28 29 30 30 26 28 27 25 24 24 22 22 20 16 16 13 12
25 27 31 31 31 35 38 39 41 42 41 43 43 46 50 51 51 49 46 46 44 42 42 40 39 38 34 32 33 34 33 32 32 29 27 28 27 26 22 24 17 16 16
8 15 20 25 29 29 34 38 38 38 38 39 41 44 49 53 52 50 50 47 46 44 42 43 42 42 41 39 39 40 39 38 38 38 34 30 30 29 27 25 24 21 17
10 13 15 18 19 23 27 34 36 36 37 41 43 48 46 45 43 45 49 47 45 44 44 45 45 44 44 41 44 42 42 42 42 40 38 31 31 30 27 25 24 22 25
8 11 13 13 17 24 25 27 34 35 36 39 46 44 45 44 45 45 46 47 47 47 46 47 48 49 48 46 43 43 44 44 42 40 36 34 29 32 31 28 26 25 25
12 14 16 15 17 19 19 25 29 32 37 42 40 44 43 45 44 42 43 49 51 48 51 52 51 51 52 51 49 47 46 44 45 41 38 37 32 36 38 34 31 31 30
15 14 16 18 18 20 19 22 22 29 34 38 43 42 45 43 45 46 48 46 46 50 49 51 52 53 55 55 53 52 49 48 43 42 44 43 42 40 39 34 35 36 36
20 18 18 19 19 19 15 17 19 24 28 33 41 44 42 43 45 48 47 45 45 45 48 46 46 52 56 56 54 53 53 53 51 48 46 45 45 46 45 41 37 36 38
15 15 18 18 18 20 22 23 24 25 30 32 34 39 41 44 46 46 44 42 41 43 40 43 47 50 52 53 55 54 55 55 57 54 51 50 49 46 48 44 42 39 38
17 14 13 13 16 15 17 21 25 27 32 24 26 35 38 42 42 41 39 39 38 35 39 40 41 43 47 52 54 56 55 59 55 52 52 53 55 54 51 50 47 46 39
18 17 17 15 13 13 14 18 23 26 23 26 26 31 33 32 31 37 35 35 34 35 39 37 40 41 45 47 50 55 57 60 57 51 51 45 49 50 54 51 48 42 38
13 12 13 13 8 8 11 15 18 18 20 22 24 26 27 28 30 29 31 28 30 30 31 33 37 39 39 40 45 51 53 54 59 59 44 44 46 46 48 47 49 43 39
7 7 7 7 4 2 3 6 7 9 14 16 20 21 21 22 22 24 22 24 25 26 28 30 32 32 32 35 37 40 44 46 51 56 54 41 42 48 47 46 44 45 41
6 3 2 4 3 3 3 2 3 5 9 11 13 14 15 18 18 20 21 21 23 23 24 24 25 28 30 32 32 34 37 44 47 47 51 47 46 50 51 44 40 46 38
3 5 7 5 6 6 6 5 2 5 6 8 9 10 11 12 13 14 15 21 23 19 24 30 30 29 28 33 33 34 41 47 51 37 53 61 65 61 53 50 50 53 46

GFSMW_850_spd_030.txt.gz
Wind_Speed
34 36 33 33 33 34 35 35 32 29 29 24 24 22 19 19 17 14 13 16 15 14 10 7 7 5 3 4 3 7 6 3 7 7 8 4 9 6 5 9 4 3 8
36 38 37 37 35 38 36 35 36 33 32 30 25 23 20 20 18 17 17 19 18 15 12 12 7 5 7 8 3 8 8 3 9 6 7 7 7 4 7 4 3 6 5
38 39 42 40 39 39 40 38 37 37 36 31 26 23 22 20 20 19 19 21 20 15 13 12 10 11 10 6 4 9 9 6 5 5 4 6 4 10 3 7 8 7 5
36 38 40 40 42 40 42 40 38 39 38 35 31 30 30 29 23 22 21 21 18 19 15 14 13 14 9 9 5 7 10 6 5 7 7 3 3 5 6 4 8 3 4
39 41 42 43 41 41 41 41 39 39 39 37 32 31 31 27 25 22 21 21 19 16 19 19 15 13 13 10 8 8 12 10 8 4 5 5 2 2 4 10 10 6 6
40 42 41 39 40 39 40 39 40 39 40 37 39 32 35 30 27 25 23 24 22 19 18 19 18 15 13 14 12 13 11 12 12 10 8 5 6 6 7 9 12 9 11
36 41 44 43 43 42 43 43 43 42 39 42 40 39 35 33 30 26 26 25 24 25 21 19 23 20 16 16 14 12 12 14 15 17 13 11 8 5 5 5 6 7 8
37 42 45 44 46 44 46 46 47 43 41 42 43 43 39 35 35 31 28 29 26 22 24 22 21 19 19 20 17 17 14 14 15 14 16 14 11 9 9 7 4 5 9
37 43 43 44 46 45 47 48 48 46 42 41 44 41 45 41 37 37 32 26 27 23 24 24 24 22 21 22 23 22 19 15 15 14 15 17 15 11 10 10 9 8 6
34 39 44 45 46 49 47 48 47 48 41 42 44 45 44 45 42 39 36 34 27 29 21 27 27 24 22 25 23 25 23 21 22 19 18 18 18 16 14 13 11 11 10
37 38 42 44 46 45 44 47 47 47 46 41 44 47 46 44 43 44 39 38 35 28 28 21 28 27 24 26 29 29 26 27 27 25 22 21 19 19 17 16 16 14 12
35 36 40 41 42 44 44 47 47 46 49 46 43 45 46 45 44 46 46 42 41 38 34 33 29 32 30 27 29 32 32 30 30 30 30 28 25 22 22 20 18 17 16
27 34 38 38 43 45 45 45 48 49 43 44 44 44 46 47 47 46 45 46 44 42 39 39 40 36 34 31 29 31 32 34 33 34 33 31 31 28 25 27 25 22 20
23 33 33 39 39 43 46 45 44 44 43 41 42 44 47 48 46 46 46 45 47 46 45 44 43 43 42 39 36 34 34 34 36 36 35 35 33 31 28 28 31 28 25
16 21 28 40 43 41 44 44 43 43 42 43 43 44 44 45 46 45 46 46 46 48 47 46 46 46 45 44 42 40 39 38 38 38 38 38 38 36 33 31 31 31 31
7 6 7 7 12 28 36 42 43 40 43 44 46 46 44 43 45 45 45 47 49 48 47 49 48 48 49 48 45 43 43 42 41 41 41 41 41 41 38 35 31 31 33
0 2 5 9 11 14 23 33 40 39 37 42 45 47 46 47 47 47 48 49 49 48 49 49 49 50 51 51 49 45 44 44 44 43 43 43 46 46 45 41 36 33 35
8 8 11 15 15 18 22 25 26 32 37 40 42 39 45 47 48 48 49 49 49 51 51 51 51 51 53 52 51 49 47 48 48 47 46 46 46 47 47 45 43 42 41
12 12 14 17 20 22 24 32 32 35 35 36 44 46 42 45 47 50 50 48 48 48 51 51 50 53 55 54 53 51 50 52 54 54 53 51 49 47 48 48 49 47 43
6 6 6 7 15 13 21 13 28 32 31 30 34 41 43 48 49 49 49 48 47 46 44 47 48 48 50 50 50 49 50 55 59 58 59 57 56 51 48 51 51 52 50
11 10 11 6 12 7 11 13 19 24 28 30 31 32 36 41 45 45 42 44 43 41 42 43 42 44 45 46 46 45 47 56 53 52 53 56 56 54 54 52 53 56 51
12 11 11 12 9 15 18 20 20 26 22 25 30 31 28 34 38 39 38 37 38 38 39 38 39 40 40 41 41 43 45 47 51 52 47 47 47 51 53 54 55 53 52
10 7 9 8 8 8 11 17 19 19 23 17 26 27 25 29 31 30 36 35 35 36 36 36 37 35 32 34 33 34 37 39 44 52 53 46 38 46 46 52 55 54 54
10 10 9 8 6 4 5 8 10 12 17 18 19 21 22 24 26 28 23 28 31 31 32 28 25 26 26 25 27 31 34 36 36 38 41 49 51 43 44 49 53 58 61
11 7 7 4 2 3 9 11 12 11 9 14 15 16 16 18 19 21 25 21 20 23 22 23 21 20 22 23 28 27 24 31 36 37 38 42 46 54 59 49 56 61 67
14 10 6 3 4 7 7 1 8 11 9 10 10 11 12 14 14 15 14 22 17 17 25 25 23 22 24 24 28 29 28 26 25 26 34 42 47 49 53 61 68 61 66

GFSMW_850_spd_033.txt.gz
Wind_Speed
36 40 38 41 41 42 39 35 32 28 26 22 29 29 29 25 22 16 14 15 13 10 13 13 8 6 8 4 2 8 9 15 16 10 6 8 8 4 6 11 7 7 6
37 42 41 40 40 44 42 41 37 33 30 27 23 26 25 23 19 21 16 18 16 14 13 13 9 7 7 6 5 10 10 10 13 10 10 12 12 7 11 7 6 5 6
45 45 47 44 44 46 46 44 42 39 35 31 26 22 22 21 22 18 22 19 19 17 13 13 11 11 9 6 5 11 11 9 12 6 7 8 4 11 6 4 8 7 1
45 47 50 46 47 50 47 44 42 40 37 34 31 27 30 29 27 24 20 21 20 18 16 14 12 14 12 10 6 11 11 11 8 9 7 7 6 8 7 7 8 6 6
38 45 52 52 47 47 48 45 41 39 39 37 34 32 31 30 28 25 23 23 22 18 16 15 13 13 14 10 10 10 14 12 10 6 13 8 7 10 7 11 13 10 7
52 48 53 52 50 46 48 46 43 41 40 40 37 35 34 33 29 27 24 23 23 20 16 18 17 13 14 15 13 10 14 14 12 11 9 7 12 10 8 8 13 10 12
48 50 49 52 49 49 48 49 47 45 43 40 38 39 36 34 35 30 28 25 25 25 21 18 20 18 14 16 15 13 14 16 18 15 13 11 9 6 8 4 6 10 11
59 56 59 56 53 53 51 51 50 48 46 42 39 41 40 35 34 32 29 30 28 25 20 21 18 18 17 17 18 17 13 15 20 20 20 18 15 10 9 11 7 8 10
53 53 58 59 59 55 54 54 52 49 47 44 41 40 44 40 36 36 32 29 27 25 21 18 19 18 16 17 20 19 18 18 17 19 21 20 20 18 12 10 13 8 5
58 53 57 56 60 58 56 53 53 50 47 44 42 41 42 44 41 35 37 32 29 29 23 23 22 23 21 19 19 23 22 21 19 18 17 20 19 18 15 13 12 14 13
52 57 56 57 57 57 56 53 53 51 47 43 41 43 44 45 46 41 38 39 33 30 32 26 25 29 26 24 21 24 27 27 24 23 21 19 20 21 19 18 18 16 15
49 56 58 57 53 55 54 53 53 52 49 44 42 42 43 44 46 46 41 41 40 37 32 35 33 24 29 28 25 23 27 29 29 28 27 25 21 23 25 24 24 22 20
48 52 53 51 52 54 54 52 51 51 48 46 43 41 43 44 44 45 43 42 43 42 40 34 34 37 30 30 29 25 26 28 30 31 31 30 28 28 28 30 29 27 23
41 49 49 50 52 52 53 51 50 49 47 46 44 44 43 43 44 43 43 44 45 44 42 42 41 36 38 36 34 32 29 28 29 33 36 35 35 34 31 31 33 32 30
44 46 48 48 51 51 51 50 48 46 46 44 44 45 43 41 41 42 42 41 43 46 46 45 44 45 45 43 43 41 38 35 33 33 36 40 40 40 37 35 34 36 38
25 33 41 50 55 54 50 50 50 47 45 45 41 39 40 40 42 43 43 44 43 42 43 45 46 47 48 48 47 45 44 42 40 39 38 40 42 43 42 40 37 35 38
22 20 18 33 37 46 51 50 49 47 47 47 45 43 41 39 40 39 41 44 44 44 44 45 46 48 48 48 49 47 46 46 45 43 42 42 43 43 44 45 44 40 37
16 15 12 10 13 10 34 47 48 48 46 47 47 46 46 44 41 41 41 41 42 44 44 45 45 46 47 46 46 46 46 49 49 49 47 46 44 44 44 44 46 46 45
15 10 8 6 3 12 13 28 42 48 48 45 46 47 47 46 45 46 45 43 43 42 44 45 46 48 48 47 45 43 45 48 52 52 52 52 51 50 46 45 46 46 49
14 7 3 5 6 7 20 28 32 35 45 46 44 42 40 44 45 45 46 45 45 45 43 44 44 45 46 45 44 42 43 47 49 51 54 56 57 54 52 50 50 52 52
14 5 1 4 6 3 0 11 26 36 35 35 35 37 40 43 44 41 42 45 46 45 46 45 44 43 41 41 40 40 40 43 45 49 53 55 55 53 53 51 53 59 54
15 10 5 6 8 10 9 6 8 10 21 32 35 32 31 32 37 40 40 40 41 42 43 42 41 39 36 36 35 34 36 37 39 44 46 49 49 49 47 47 53 55 56
21 11 8 10 8 3 9 13 11 12 13 20 20 22 29 30 28 28 34 37 37 36 38 37 36 35 32 31 30 29 30 30 33 35 37 38 42 42 47 45 47 48 56
20 14 11 17 7 4 7 11 16 19 22 21 20 25 23 25 23 22 26 28 32 33 32 32 31 28 25 22 25 27 27 28 31 32 34 34 35 38 43 46 50 47 54
16 13 11 16 11 11 9 10 13 15 15 14 17 19 22 22 20 19 22 23 23 23 25 24 23 24 26 25 25 28 29 26 23 22 28 35 42 44 46 51 50 49 56
18 15 13 12 14 14 16 13 14 13 12 14 16 18 18 18 17 15 19 23 16 21 19 20 21 27 26 22 21 21 22 25 28 32 35 35 35 37 39 42 47 51 52

GFSMW_850_spd_036.txt.gz
Wind_Speed
46 41 43 46 46 44 42 43 45 41 36 35 34 30 28 29 25 16 16 15 10 7 14 10 8 7 8 7 7 7 10 8 14 14 11 9 6 8 5 7 6 7 4
44 47 45 43 49 49 46 45 45 45 39 32 28 35 33 29 28 21 15 16 14 12 10 13 9 9 11 8 7 11 15 15 16 10 11 12 5 7 9 9 7 6 3
43 50 51 50 51 51 49 48 48 45 39 33 27 25 33 32 31 29 23 19 16 15 12 13 13 11 10 7 8 12 13 15 13 11 11 8 4 12 9 8 6 5 2
42 45 49 54 54 54 50 50 47 44 40 35 31 28 32 34 36 31 30 25 19 17 14 11 16 15 13 10 7 12 13 15 15 11 9 11 10 12 7 8 7 5 4
46 47 52 53 56 53 55 52 48 44 42 38 34 32 31 33 31 28 24 22 23 19 16 13 17 15 14 11 12 14 17 14 14 14 12 10 8 14 5 9 12 13 9
47 50 56 56 54 54 54 54 51 47 44 41 38 35 34 31 32 29 26 25 24 21 18 15 18 16 14 15 15 14 16 17 15 14 12 14 11 11 9 6 8 12 10
46 49 47 51 50 57 57 57 54 51 48 44 41 38 36 33 32 32 28 27 27 25 23 20 17 19 16 15 16 16 15 19 17 15 13 11 11 11 9 7 7 11 13
49 48 53 61 57 59 59 59 58 55 51 46 42 39 37 34 33 34 31 29 27 25 21 21 19 16 18 17 16 18 18 17 17 18 15 13 13 12 10 11 9 10 12
51 50 52 56 54 61 61 60 58 55 53 48 43 42 39 37 36 34 34 32 31 27 23 23 22 19 16 18 17 18 20 17 17 19 19 18 18 17 14 13 15 15 13
48 47 50 55 58 62 63 60 58 55 53 49 45 43 41 39 37 36 34 34 31 29 27 24 23 19 18 17 18 18 19 20 19 19 20 23 22 22 20 18 15 20 18
53 56 48 54 62 61 61 61 58 54 54 50 47 45 42 41 42 40 36 34 33 31 30 26 22 22 22 21 23 21 19 23 23 22 22 22 23 24 24 22 20 19 20
62 56 53 54 53 52 55 61 57 55 52 46 46 44 43 42 43 44 41 37 36 34 30 30 30 25 25 27 26 26 23 24 26 27 26 25 24 26 27 27 25 24 23
54 54 49 50 52 53 54 58 58 56 52 48 46 45 43 42 42 44 42 40 38 37 36 32 34 36 34 27 28 30 27 24 26 28 31 31 29 30 29 31 31 30 28
54 52 49 51 53 55 58 58 57 54 50 47 46 45 43 41 39 40 42 42 40 39 40 41 39 36 36 36 34 30 29 28 26 27 30 32 33 34 33 32 33 34 33
51 52 51 51 54 53 57 55 54 53 50 46 44 43 40 38 37 38 39 40 41 40 41 42 45 43 42 39 36 35 35 33 31 30 31 32 33 33 33 34 34 34 36
50 54 55 54 58 55 56 55 54 51 49 44 42 39 39 38 38 37 36 36 38 39 39 42 43 45 46 46 45 43 40 39 39 38 37 37 37 37 37 37 36 36 36
48 51 52 58 61 58 56 55 50 49 47 43 40 39 37 38 37 36 37 37 36 36 38 40 41 44 46 46 46 45 45 45 45 44 42 42 42 41 42 41 41 41 40
30 35 41 41 43 42 46 47 45 46 45 44 40 39 39 37 35 35 37 37 35 36 36 38 40 41 42 41 41 42 43 45 46 46 46 45 44 43 42 41 44 44 45
34 29 30 36 36 36 38 40 41 42 44 45 43 42 40 38 36 36 34 32 32 32 33 33 35 38 39 37 36 36 38 42 44 45 46 46 47 46 44 44 45 46 49
27 28 28 27 23 24 26 29 39 43 44 45 43 42 42 40 40 37 36 34 35 35 35 36 36 36 35 34 33 32 33 37 40 41 45 48 50 49 48 47 46 51 56
28 23 23 22 20 16 13 24 29 37 37 40 39 40 41 39 38 39 38 39 39 39 40 39 39 38 37 35 32 30 31 34 35 38 40 40 40 40 42 44 48 51 47
28 23 20 18 14 12 10 12 13 27 36 35 35 39 40 38 37 37 38 38 39 40 40 41 41 40 38 35 31 29 28 29 32 34 37 37 36 37 37 38 40 40 39
27 25 24 20 17 11 7 6 6 8 10 15 26 33 36 35 34 33 33 33 33 35 37 37 38 38 34 29 26 25 26 25 28 29 29 28 28 30 35 38 38 40 44
21 17 15 16 15 11 7 4 0 4 9 13 16 19 20 21 28 32 31 28 28 30 33 34 32 29 25 25 25 26 27 26 27 26 26 26 28 32 34 37 38 40 43
21 17 11 8 6 5 5 7 8 7 6 10 15 19 24 24 24 27 27 26 25 24 23 22 23 25 25 25 25 23 22 23 24 24 24 23 24 27 29 30 32 35 38
18 13 9 6 7 6 6 10 12 12 12 12 12 11 13 17 19 24 24 24 22 21 21 21 21 23 23 24 23 22 21 20 19 21 24 27 28 28 28 26 26 26 26

GFSMW_850_spd_042.txt.gz
Wind_Speed
41 38 42 40 37 37 36 34 32 30 30 33 28 26 23 18 14 12 11 11 9 5 3 4 4 3 5 6 5 3 4 7 8 5 4 4 6 3 3 2 1 2 5
36 39 44 42 41 40 38 37 34 33 33 33 30 29 25 20 15 13 10 11 10 6 3 3 4 3 2 4 3 5 7 7 9 9 6 4 4 6 4 4 4 2 2
38 40 42 47 43 43 41 40 36 36 33 32 32 30 27 24 21 19 16 11 11 9 7 5 5 6 4 6 3 5 6 7 11 11 6 4 2 2 5 5 4 4 2
37 39 42 45 49 48 43 41 39 38 36 33 33 32 30 27 25 22 20 16 13 11 10 8 6 6 6 6 4 7 8 8 10 8 6 7 2 4 3 7 5 5 2
40 43 47 50 51 48 47 44 42 40 39 37 36 34 32 29 26 25 24 22 20 15 11 10 10 6 8 7 7 5 11 12 13 11 10 10 10 8 5 4 3 3 4
42 45 48 45 46 48 49 46 45 44 41 40 38 36 36 33 28 26 29 28 25 22 17 13 12 10 10 10 9 8 9 14 14 15 13 10 9 8 10 7 7 5 5
42 44 46 46 48 49 49 48 47 45 45 42 40 39 37 36 30 25 23 29 31 29 25 20 16 13 10 10 10 11 11 14 14 14 14 14 13 12 9 10 9 8 8
40 47 44 48 51 53 52 50 49 48 46 44 42 37 38 38 35 29 24 24 27 26 20 19 17 14 12 11 11 12 13 14 16 17 16 13 12 13 13 12 11 12 13
40 43 47 48 51 54 55 55 51 49 46 46 45 41 39 39 38 31 26 24 24 25 23 18 16 16 14 13 13 14 15 16 15 15 17 16 14 13 12 12 12 13 15
41 42 43 47 49 51 54 55 54 51 48 44 46 44 41 38 36 33 30 27 25 24 23 21 19 18 17 16 16 16 16 17 17 16 17 18 17 16 15 15 15 16 17
41 48 49 49 49 47 50 54 54 52 53 49 47 45 44 42 38 34 32 28 25 24 25 24 21 20 19 18 19 20 18 19 18 19 19 19 18 19 20 20 21 22 22
45 49 50 49 48 49 49 52 52 52 52 49 47 46 42 42 41 38 33 30 27 26 26 26 25 25 22 21 20 20 19 19 19 18 20 21 20 21 21 22 24 25 26
43 45 39 38 47 50 50 51 50 50 48 48 48 48 46 44 42 40 36 32 28 28 28 28 29 27 26 24 22 22 22 21 22 21 21 20 21 24 25 25 26 26 27
36 41 39 44 48 51 52 50 48 46 46 47 47 48 48 46 44 39 38 35 31 29 30 31 30 30 28 28 26 25 24 24 25 25 25 24 24 24 24 27 29 30 31
30 36 42 45 46 47 50 49 47 45 44 44 44 45 43 45 42 40 38 36 34 32 31 32 34 32 32 33 30 30 29 28 28 27 26 26 25 24 24 25 26 28 30
38 41 42 47 48 51 55 52 50 46 43 42 41 39 39 41 41 39 37 36 35 33 33 34 34 36 36 34 34 33 32 32 32 33 32 31 30 30 29 30 31 32 34
30 39 47 49 52 54 55 53 50 46 43 40 38 39 38 38 37 37 37 36 36 33 34 34 34 36 37 37 36 36 38 39 38 38 37 36 35 34 34 35 36 37 38
21 33 46 50 51 51 51 49 47 46 41 37 36 37 38 36 36 38 37 37 36 35 35 34 34 35 37 36 37 38 39 41 42 42 42 42 42 41 40 39 40 40 39
18 34 40 46 45 46 46 47 44 43 41 36 37 37 36 35 36 37 37 36 36 35 35 33 32 33 33 32 31 32 36 40 41 41 41 41 41 39 37 38 38 38 39
9 21 31 32 35 39 42 44 43 43 40 36 36 36 34 32 32 32 33 32 32 32 32 33 31 30 28 26 24 26 29 34 35 35 36 36 35 33 31 32 32 34 30
10 18 23 28 31 34 36 39 40 41 38 32 31 29 29 29 29 29 29 29 28 26 28 27 24 23 22 21 20 21 25 27 28 30 29 29 25 21 20 21 25 28 25
21 19 25 26 27 28 28 30 30 30 29 27 27 25 26 27 27 26 24 24 24 25 25 24 24 24 23 22 22 22 24 23 27 27 25 22 19 21 21 22 23 23 21
33 30 22 21 26 26 25 24 26 28 29 27 25 23 23 24 24 23 23 24 24 25 25 25 25 25 21 19 19 18 19 19 22 21 20 20 22 22 21 21 22 23 27
29 26 29 31 27 20 20 19 17 17 19 20 21 19 19 19 19 20 22 25 26 25 24 24 26 22 18 17 16 16 16 16 20 19 21 21 21 22 23 26 30 29 25
30 23 21 21 21 18 19 17 16 15 12 11 13 17 20 21 22 24 24 25 24 23 23 23 20 19 17 14 14 14 16 19 20 21 22 24 25 25 23 23 23 22 25
31 27 20 16 15 12 10 9 9 11 12 11 11 11 12 13 15 18 20 22 21 22 22 20 18 17 17 14 11 13 16 16 16 18 19 19 19 18 19 20 24 25 26

GFSMW_850_spd_045.txt.gz
Wind_Speed
34 31 30 32 33 36 36 34 33 30 29 29 28 25 23 18 14 12 11 10 7 5 7 7 5 5 5 8 5 4 5 7 6 5 4 6 4 2 1 0 1 3 5
33 33 32 31 33 38 39 35 34 33 31 31 30 29 24 19 15 13 11 10 9 6 5 6 5 4 4 7 6 5 5 6 7 6 5 4 4 6 4 2 2 1 2
36 36 35 34 34 35 41 38 35 35 33 32 32 29 25 22 19 16 13 9 11 9 6 4 5 5 4 5 3 4 6 6 10 8 4 2 1 1 2 3 3 3 3
33 35 37 38 37 37 40 40 38 36 34 33 33 34 29 28 24 19 15 12 9 10 8 7 6 5 5 5 3 5 6 6 9 7 7 6 1 1 1 3 4 3 2
35 38 40 40 38 35 42 40 39 39 35 36 35 34 32 28 24 22 18 17 15 12 9 9 8 6 4 5 5 4 8 8 9 7 6 5 7 7 3 2 3 2 2
36 36 35 35 36 35 37 41 41 40 39 38 37 35 33 29 26 24 22 21 19 18 16 12 10 8 6 8 8 7 6 10 11 11 10 7 3 4 5 4 6 4 4
36 36 36 37 37 40 38 42 42 42 41 41 40 37 34 32 29 25 24 24 25 24 22 18 14 11 9 8 10 9 8 8 11 10 11 11 10 10 9 8 6 6 8
35 37 38 39 41 44 46 45 45 44 45 44 43 41 37 35 32 30 28 23 23 25 25 22 20 17 13 11 11 10 10 10 9 12 11 11 11 10 9 10 8 7 8
37 39 39 40 43 44 46 46 44 43 46 47 46 43 41 39 36 31 29 27 22 20 20 21 18 18 16 14 12 13 11 11 12 12 12 13 12 11 11 10 10 8 8
32 34 38 42 45 48 48 46 44 44 45 45 45 44 42 39 36 33 30 29 25 19 19 21 21 19 18 16 15 15 13 14 13 13 13 13 13 13 14 13 13 13 13
32 34 40 46 49 45 48 50 48 46 45 45 45 45 42 39 37 35 31 30 27 22 21 22 24 22 21 20 19 18 17 16 15 15 15 15 14 15 15 16 17 18 19
33 36 37 37 40 47 49 51 52 51 48 45 45 45 43 38 38 37 34 31 29 26 24 23 26 24 24 23 22 20 19 19 18 16 17 16 16 16 17 18 19 20 22
30 31 29 35 42 46 50 50 48 51 50 48 47 46 45 43 39 36 35 33 30 29 26 26 27 28 27 25 24 23 22 21 19 18 19 17 17 18 18 20 22 23 24
24 25 27 35 42 44 49 51 50 44 46 47 46 47 47 44 40 36 34 32 31 31 29 28 28 29 29 28 27 26 25 24 23 22 22 22 22 22 21 22 23 24 27
16 25 33 38 41 42 45 48 47 47 44 45 45 45 44 44 42 41 37 32 31 32 31 29 30 30 29 30 29 29 28 27 27 26 25 24 24 23 23 24 25 25 27
16 18 28 36 40 44 48 46 50 47 45 44 42 41 41 42 41 41 39 37 33 33 33 34 32 32 33 32 31 30 30 30 31 30 28 27 27 27 27 28 27 28 31
18 20 25 34 40 43 48 48 47 46 44 42 39 38 37 38 38 37 38 37 35 34 36 35 34 36 35 34 33 32 33 35 35 34 33 32 32 31 31 31 32 33 33
22 24 27 33 42 42 41 41 42 47 44 42 39 35 34 34 34 36 37 36 35 36 36 36 36 36 37 36 34 34 36 38 39 38 38 38 38 38 38 37 38 40 41
26 28 30 35 38 41 43 44 43 44 43 43 40 37 36 34 35 36 35 35 35 36 36 35 36 36 36 35 33 33 35 39 41 41 41 41 41 40 39 38 40 40 40
16 20 24 26 35 40 43 44 45 43 42 43 39 35 33 32 31 30 32 32 32 33 34 35 35 35 34 33 30 30 33 37 38 38 39 39 38 35 33 33 33 36 35
15 6 19 27 35 41 43 43 42 40 39 39 38 35 32 33 30 29 30 31 32 32 32 33 33 34 33 31 29 29 32 34 32 32 31 31 27 23 22 23 24 27 23
19 11 16 25 29 31 33 36 38 36 36 35 32 30 29 30 30 31 31 31 31 32 32 31 31 30 27 24 22 23 26 26 28 28 26 26 23 19 18 20 24 25 24
30 22 17 20 23 28 29 30 30 32 29 27 28 27 26 28 29 28 29 29 29 29 29 28 28 25 24 23 23 23 24 24 26 26 25 21 19 19 21 23 23 22 23
36 28 26 24 19 16 19 19 22 25 26 28 28 26 25 25 25 26 26 28 29 29 28 26 24 22 22 21 20 20 21 22 24 23 21 21 20 21 21 22 22 24 30
38 34 31 29 25 21 17 13 13 17 17 23 25 26 26 26 27 26 26 26 27 25 25 23 23 22 21 19 17 18 18 19 19 19 21 23 24 24 26 27 27 22 21
37 36 32 28 23 19 16 13 12 12 14 14 17 20 23 26 28 28 26 26 26 23 22 23 20 21 18 17 17 16 15 17 18 21 22 22 21 21 21 19 18 18 19

GFSMW_850_spd_048.txt.gz
Wind_Speed
34 34 32 32 29 28 26 26 25 23 23 22 20 18 16 14 11 9 11 8 6 6 6 4 4 5 5 6 6 6 7 7 7 5 5 4 2 1 1 2 2 2 3
33 35 34 34 33 31 29 28 28 25 27 23 21 18 16 14 11 9 12 11 8 5 5 8 5 6 6 7 7 8 7 7 7 3 4 6 3 1 1 1 1 1 0
34 36 36 36 35 33 32 30 32 31 31 24 23 21 17 14 14 12 11 11 10 8 6 5 6 5 5 6 6 6 9 6 7 7 2 1 1 3 1 2 1 3 2
33 35 37 37 37 35 32 31 31 34 34 33 25 26 21 18 16 14 12 10 11 10 8 7 5 4 7 7 5 5 7 8 6 4 3 2 2 3 5 2 2 3 3
34 36 39 38 36 35 34 33 31 35 35 36 29 28 26 19 16 15 14 13 12 10 9 7 6 5 4 5 7 6 7 7 7 5 4 2 1 2 3 4 3 2 3
34 35 35 35 36 35 35 33 35 38 39 38 38 33 28 25 20 19 17 14 13 13 13 10 7 6 5 6 5 6 8 8 8 7 6 3 1 1 1 1 1 2 2
32 34 36 38 37 38 38 37 37 42 42 40 38 37 33 30 24 20 19 16 16 14 14 15 12 9 7 7 8 6 8 8 8 9 7 7 5 5 4 3 3 2 3
31 34 37 38 39 40 39 38 38 40 43 44 42 38 37 29 27 25 19 18 17 16 15 15 15 14 12 10 9 8 7 8 7 9 9 7 7 7 5 5 4 4 3
31 35 36 38 38 39 43 44 43 44 41 40 44 41 39 37 28 27 24 22 19 16 16 17 17 16 16 15 12 10 9 10 8 9 9 9 8 8 6 6 6 5 5
28 31 35 38 38 39 40 40 38 40 43 39 41 40 41 41 38 29 30 24 21 21 18 16 17 17 17 17 16 12 12 11 10 9 11 10 9 10 8 8 8 8 9
28 32 35 38 40 38 38 41 40 37 38 43 41 42 39 40 41 35 35 32 28 25 21 20 18 19 18 18 20 18 14 13 12 13 13 13 13 11 10 10 11 12 12
28 30 33 34 36 39 39 40 41 39 38 43 47 46 45 42 35 39 36 34 31 28 26 24 22 21 20 19 20 20 16 17 16 15 15 15 13 15 15 14 15 15 16
29 30 28 31 36 40 42 42 41 41 39 38 41 41 40 40 41 40 37 35 32 29 28 28 26 24 23 21 22 23 20 19 18 17 18 17 16 17 15 15 15 15 16
22 26 28 30 33 37 42 45 43 41 39 38 39 41 45 43 42 42 39 36 33 30 30 31 28 27 26 24 23 23 24 22 20 20 19 19 19 19 18 17 18 17 18
19 22 25 29 32 36 39 43 41 40 40 43 41 43 47 47 45 42 40 37 34 32 32 32 31 29 27 25 27 25 24 24 24 22 22 23 23 24 23 19 18 18 19
8 12 21 25 28 33 40 41 46 44 44 46 49 46 48 47 46 45 43 40 36 35 34 34 33 32 28 27 30 28 24 25 24 25 25 25 27 26 26 26 25 26 28
12 13 16 20 26 31 36 42 46 45 45 47 47 47 49 49 47 45 43 42 40 37 37 36 35 35 33 31 31 30 30 25 26 27 26 25 23 25 28 29 30 31 31
12 14 16 19 25 27 30 33 33 42 45 45 48 47 49 48 47 47 46 44 41 41 40 38 37 36 36 34 33 32 32 34 34 33 31 33 33 31 28 25 26 28 29
17 19 19 23 22 25 30 32 33 36 42 47 48 47 46 45 45 46 45 43 41 40 40 39 39 39 38 37 34 34 35 37 38 38 39 39 39 38 37 37 39 39 37
17 21 20 23 26 28 30 34 36 38 45 48 45 45 44 43 43 43 43 42 41 41 38 38 39 40 39 38 37 35 35 34 34 37 39 41 42 41 40 38 37 38 34
18 19 20 25 30 29 33 40 39 43 44 36 34 38 41 41 40 39 37 37 39 36 39 37 37 38 38 37 37 35 36 35 30 29 28 27 30 32 29 30 31 32 26
11 10 10 14 19 27 37 39 44 37 34 35 36 38 39 36 33 36 35 35 36 37 36 36 35 33 37 38 37 35 35 35 35 31 25 24 26 28 23 23 26 24 21
17 8 2 10 14 21 30 31 30 28 28 29 34 34 34 35 33 35 34 32 33 29 31 28 28 26 25 29 32 33 33 33 34 32 24 26 28 28 24 24 23 23 25
24 19 13 15 14 16 19 21 23 27 26 26 27 25 26 28 29 27 28 28 28 29 28 28 26 25 24 23 22 31 31 30 32 32 33 31 30 28 25 24 24 24 24
30 28 25 22 21 20 18 19 16 23 23 24 22 21 21 22 21 21 23 24 23 25 26 25 23 23 24 23 23 21 21 28 29 27 26 25 26 27 26 26 26 26 27
30 30 30 29 22 21 20 15 18 15 19 21 21 20 19 17 18 20 22 24 26 28 28 26 23 23 24 24 24 23 24 20 20 22 25 23 23 24 25 25 25 21 18